Flag for Germany Weather past 2 weeks in Altenburg, Thuringia, Germany

Now
32 °F

Low clouds.


Feels Like: 32 °F
Forecast: 35 / 38 °F
Wind: 1 mph from Southwest

Location: Gera-Leumnitz

Current Time: Jan 26, 2015 at 4:11:27 AM

Latest Report: Jan 26, 2015 at 3:00 AM


Visibility: 2 mi

Pressure: 30.32 "Hg

Humidity: 98%

Dew point: 32 °F

Location of AltenburgLocation

Historic Weather in Altenburg — Graph

°F

Altenburg temperature yesterday

Maximum temperature yesterday: 35 °F (at 1:00 PM)
Minimum temperature yesterday: 30 °F (at 12:00 AM)
Average temperature yesterday: 33 °F

Past Weeks' High & Low Weather Summary

 TemperatureHumidityPressure
High52 °F (Jan 13, 8:00 PM)100% (Jan 16, 9:00 PM)30.35 "Hg (Jan 16, 9:00 PM)
Low27 °F (Jan 21, 8:00 PM)47% (Jan 13, 4:00 PM)29.68 "Hg (Jan 15, 7:00 PM)
Average35 °F85%29.99 "Hg
* Reported Jan 11 3:00 AM — Jan 26 3:00 AM, Altenburg, Weather by CustomWeather, © 2014

Note: Actual official high and low records may vary slightly from our data, if they occured in-between our weather recording intervals... More about our weather records

Advertising

Altenburg weather history for previous 24 hours

 ConditionsComfort  
Time TempWeatherWind HumidityBarometerVisibility
3:00 AM
Jan 26
32 °FLow clouds.1 mph98%30.32 "Hg2 mi
2:00 AM32 °FLow clouds.2 mph98%30.33 "Hg1 mi
1:00 AM32 °FSnow flurries. Low clouds.2 mph98%30.33 "Hg2 mi
12:00 AM32 °FDrizzle. Low clouds.2 mph98%30.34 "Hg1 mi
11:00 PM
Jan 25
32 °FLight snow. Low clouds.1 mph99%30.34 "Hg0 mi
10:00 PM32 °FLight snow. Low clouds.1 mph99%30.34 "Hg0 mi
9:00 PM32 °FLight snow. Low clouds.1 mph98%30.34 "Hg2 mi
8:00 PM33 °FLight snow. Low clouds.2 mph96%30.34 "Hg3 mi
7:00 PM33 °FDrizzle. Low clouds.3 mph95%30.34 "Hg6 mi
6:00 PM34 °FSnow flurries. Low clouds.3 mph93%30.34 "Hg9 mi
5:00 PM34 °FSnow flurries. Low clouds.5 mph93%30.34 "Hg9 mi
4:00 PM34 °FSnow flurries. Low clouds.5 mph90%30.33 "Hg10 mi
3:00 PM35 °FSnow flurries. Low clouds.6 mph84%30.32 "Hg11 mi
2:00 PM35 °FOvercast.6 mph81%30.32 "Hg12 mi
1:00 PM35 °FOvercast.7 mph81%30.32 "Hg19 mi
12:00 PM34 °FLow clouds.7 mph85%30.33 "Hg17 mi
11:00 AM33 °FDrizzle. Low clouds.6 mph88%30.35 "Hg16 mi
10:00 AM33 °FLow clouds.6 mph89%30.34 "Hg16 mi
9:00 AM32 °FLow clouds.5 mph91%30.32 "Hg14 mi
8:00 AM31 °FOvercast.5 mph92%30.31 "Hg12 mi
7:00 AM32 °FLow clouds.5 mph92%30.29 "Hg10 mi
6:00 AM31 °FOvercast.3 mph93%30.27 "Hg8 mi
4:00 AM32 °FLow clouds.5 mph93%30.24 "Hg5 mi
Weather by CustomWeather, © 2014

See weather overviewHow to use our weather pages